Terminal Aerodrome Forecast
Issued by NWS Boston, MA

Home | Current Version | Previous Version | Text Only | Print | Product List | Glossary On
Versions: 1 2 3 4 5 6 7 8 9 10 11 12 13 14 15 16 17 18 19 20 21 22 23 24 25 26 27 28 29 30 31 32 33 34 35 36 37 38 39 40 41 42 43 44 45 46 47
000
FTUS41 KBOX 220303 AAB
TAFBOS
TAF AMD
KBOS 220303Z 2203/2306 12006KT 6SM BR BKN015
     FM220700 29010G20KT 3SM BR SCT015 BKN060
     FM220900 26007KT P6SM SCT015 BKN100
     FM221200 26010KT P6SM SCT250
     FM221500 27012G24KT P6SM SCT250
     FM221800 27015G24KT P6SM BKN040
     FM230000 29013KT P6SM SCT250=

USA.gov is the U.S. government's official web portal to all federal, state and local government web resources and services.